Location: Lake Lucerne
(45.5315°N, 88.8489°W)
Time: 23:19:39
(UTC-05:00)

ARIANE 6 FM1 Upper Stage - Pass Details

Date: 23 September 2024
Orbit: 563 x 595 km, 62.0° (Epoch: 14 October)

Event Time Altitude Azimuth Distance (km) Brightness Sun altitude
Rises 19:53:09 0° 215° (SW) 2,765 6.5 -11.9°
Reaches altitude 10° 19:55:22 10° 213° (SSW) 1,877 5.6 -12.2°
Maximum altitude 19:59:36 77° 128° (SE) 600 2.6 -13.0°
Drops below altitude 10° 20:03:54 10° 43° (NE) 1,911 5.1 -13.7°
Enters shadow 20:05:41 - 42° (NE) 2,624 5.8 -14.0°
